Weather History for Freeport, IL

Change the Weather History Date:

Monday, April 28, 2014

  Actual Average Record
Temperature  
Mean Temperature 46 °F -  
Max Temperature 50 °F 65 °F 86 °F (1986)
Min Temperature 41 °F 41 °F 30 °F (1976)
Degree Days  
Heating Degree Days 20    
Moisture  
Dew Point 42 °F    
Average Humidity 89    
Maximum Humidity 93    
Minimum Humidity 77    
Precipitation  
Precipitation 0.19 in - - ()
Sea Level Pressure  
Sea Level Pressure 29.62 in    
Wind  
Wind Speed 20 mph (East)    
Max Wind Speed 29 mph    
Max Gust Speed 41 mph    
Visibility 8 miles    
Events Rain , Thunderstorm    
Averages and records for this station are not official NWS values.
T = Trace of Precipitation, MM = Missing Value Source: NWS Daily Summary

Daily Weather History Graph

Daily Weather History Graph

Search for Another Location

Airport:

Trip Planner

Search our weather history database for the weather conditions in past years. The results will help you decide how hot, cold, wet, or windy it might be!

Date:

Astronomy

Apr. 28, 2014 Rise Set
Actual Time 5:57 AM CDT 7:54 PM CDT
Civil Twilight 5:27 AM CDT 8:24 PM CDT
Nautical Twilight 4:50 AM CDT 9:01 PM CDT
Astronomical Twilight 4:10 AM CDT 9:42 PM CDT
Moon 5:37 AM CDT (4/28) 7:31 PM CDT (4/28)
Length of Visible Light 14h 57m
Length of Day
13h 56m
Waning Crescent, 0% of the Moon is Illuminated
Apr 28
Waning Crescent
Apr 29
New
May 6
First Quarter
May 14
Full
May 21
Last Quarter

Hourly Weather History & Observations

Time (CDT) Temp. Windchill Dew Point Humidity Pressure Visibility Wind Dir Wind Speed Gust Speed Precip Events Conditions
12:15 AM 45.1 °F 37.3 °F 39.4 °F 80% 29.77 in 10.0 mi East 19.6 mph 26.5 mph N/A   Overcast
12:35 AM 44.6 °F 36.6 °F 38.8 °F 80% 29.77 in 10.0 mi East 19.6 mph 24.2 mph N/A   Mostly Cloudy
12:55 AM 44.6 °F 36.9 °F 37.8 °F 77% 29.76 in 10.0 mi East 18.4 mph 26.5 mph N/A   Scattered Clouds
1:15 AM 44.6 °F 35.9 °F 37.9 °F 77% 29.75 in 10.0 mi East 23.0 mph 28.8 mph N/A   Mostly Cloudy
1:35 AM 45.7 °F 36.9 °F 39.4 °F 79% 29.74 in 10.0 mi East 25.3 mph 33.4 mph N/A   Overcast
1:55 AM 44.6 °F 35.9 °F 40.3 °F 85% 29.73 in 10.0 mi East 23.0 mph 36.8 mph N/A   Overcast
2:15 AM 43.9 °F 35.4 °F 41.0 °F 90% 29.73 in 10.0 mi East 20.7 mph 31.1 mph N/A   Overcast
2:35 AM 43.2 °F 34.2 °F 40.3 °F 90% 29.71 in 5.0 mi East 21.9 mph 28.8 mph N/A   Overcast
2:55 AM 42.3 °F 33.1 °F 39.6 °F 90% 29.71 in 10.0 mi East 21.9 mph 27.6 mph N/A   Overcast
3:15 AM 43.2 °F 33.6 °F 40.1 °F 89% 29.70 in 10.0 mi East 25.3 mph 29.9 mph N/A   Overcast
3:35 AM 42.1 °F 32.1 °F 39.2 °F 90% 29.70 in 10.0 mi East 25.3 mph 34.5 mph N/A   Overcast
3:55 AM 42.3 °F 32.8 °F 39.2 °F 89% 29.69 in 10.0 mi East 23.0 mph 32.2 mph N/A   Overcast
4:15 AM 41.9 °F 32.6 °F 38.8 °F 89% 29.69 in 10.0 mi East 21.9 mph 33.4 mph N/A Rain Light Rain
4:35 AM 41.9 °F 32.3 °F 38.7 °F 88% 29.69 in 7.0 mi East 23.0 mph 27.6 mph 0.01 in Rain Light Rain
4:55 AM 41.9 °F 33.1 °F 38.5 °F 88% 29.69 in 10.0 mi East 19.6 mph 25.3 mph 0.01 in Rain Light Rain
5:15 AM 41.9 °F 33.7 °F 38.5 °F 88% 29.68 in 10.0 mi East 17.3 mph - N/A   Overcast
5:35 AM 41.9 °F 34.0 °F 38.3 °F 87% 29.67 in 10.0 mi East 16.1 mph 20.7 mph N/A   Overcast
5:55 AM 42.1 °F 33.3 °F 37.9 °F 85% 29.68 in 10.0 mi East 19.6 mph - N/A   Overcast
6:15 AM 42.8 °F 34.5 °F 38.5 °F 85% 29.69 in 10.0 mi East 18.4 mph - 0.01 in Rain Light Rain
6:35 AM 41.9 °F 32.6 °F 38.7 °F 88% 29.68 in 5.0 mi East 21.9 mph 26.5 mph 0.02 in Rain Light Rain
6:55 AM 41.9 °F 32.8 °F 38.5 °F 88% 29.67 in 5.0 mi East 20.7 mph - 0.02 in   Overcast
7:15 AM 41.9 °F 33.1 °F 38.7 °F 88% 29.67 in 10.0 mi East 19.6 mph 26.5 mph N/A   Overcast
7:35 AM 41.9 °F 32.6 °F 39.2 °F 90% 29.67 in 1.2 mi East 21.9 mph 28.8 mph 0.02 in   Unknown
7:55 AM 41.9 °F 32.6 °F 39.7 °F 92% 29.64 in 7.0 mi East 21.9 mph 28.8 mph 0.02 in   Overcast
8:15 AM 41.9 °F 31.9 °F 39.7 °F 92% 29.61 in 10.0 mi East 25.3 mph 33.4 mph N/A   Overcast
8:55 AM 43.2 °F 34.0 °F 41.0 °F 92% 29.60 in 10.0 mi East 23.0 mph 41.4 mph N/A   Overcast
9:15 AM 43.2 °F 33.8 °F 40.6 °F 91% 29.61 in 10.0 mi East 24.2 mph 32.2 mph N/A   Overcast
9:35 AM 43.5 °F 35.5 °F 41.0 °F 91% 29.62 in 10.0 mi East 18.4 mph 26.5 mph N/A   Overcast
9:55 AM 43.7 °F 35.7 °F 41.0 °F 90% 29.63 in 10.0 mi East 18.4 mph - N/A   Overcast
10:15 AM 44.2 °F 36.7 °F 41.9 °F 91% 29.64 in 10.0 mi East 17.3 mph - N/A   Overcast
10:35 AM 44.6 °F 35.9 °F 41.9 °F 90% 29.64 in 7.0 mi East 23.0 mph 27.6 mph N/A   Overcast
10:55 AM 44.6 °F 35.5 °F 41.9 °F 90% 29.64 in 7.0 mi East 25.3 mph 29.9 mph N/A   Overcast
11:15 AM 45.1 °F 36.9 °F 42.6 °F 91% 29.64 in 10.0 mi East 21.9 mph 34.5 mph N/A   Overcast
11:35 AM 45.7 °F 36.9 °F 42.8 °F 90% 29.63 in 10.0 mi East 25.3 mph 34.5 mph N/A   Overcast
12:15 PM 48.2 °F - 44.2 °F 86% 29.62 in 10.0 mi East 28.8 mph 36.8 mph N/A   Overcast
12:35 PM 48.2 °F - 43.9 °F 85% 29.61 in 10.0 mi East 28.8 mph 33.4 mph N/A   Overcast
12:55 PM 47.7 °F - 43.5 °F 86% 29.60 in 10.0 mi East 26.5 mph 34.5 mph N/A   Overcast
1:15 PM 46.2 °F 38.7 °F 43.0 °F 88% 29.61 in 10.0 mi East 19.6 mph 26.5 mph N/A   Overcast
1:35 PM 46.2 °F 37.9 °F 42.8 °F 88% 29.61 in 10.0 mi East 24.2 mph 29.9 mph N/A   Overcast
1:55 PM 45.7 °F 37.4 °F 42.8 °F 90% 29.61 in 10.0 mi East 23.0 mph - N/A   Overcast
2:15 PM 47.7 °F - 44.6 °F 89% 29.61 in 10.0 mi East 20.7 mph 27.6 mph N/A   Overcast
2:35 PM 48.2 °F - 45.0 °F 89% 29.60 in 10.0 mi East 24.2 mph 29.9 mph N/A   Overcast
2:55 PM 48.2 °F - 45.0 °F 89% 29.59 in 7.0 mi East 23.0 mph - N/A   Overcast
3:15 PM 50.9 °F - 47.3 °F 87% 29.57 in 10.0 mi East 17.3 mph 26.5 mph N/A   Overcast
3:35 PM 50.9 °F - 47.3 °F 87% 29.56 in 10.0 mi East 20.7 mph 26.5 mph N/A   Overcast
4:15 PM 50.9 °F - 46.9 °F 86% 29.55 in 10.0 mi East 20.7 mph 27.6 mph N/A   Overcast
4:35 PM 50.9 °F - 47.3 °F 87% 29.54 in 7.0 mi ENE 17.3 mph 21.9 mph N/A   Overcast
4:55 PM 48.2 °F - 45.5 °F 90% 29.54 in 5.0 mi ENE 15.0 mph 21.9 mph N/A Rain , Thunderstorm Light Thunderstorms and Rain
5:15 PM 48.2 °F - 45.9 °F 92% 29.54 in 4.0 mi ENE 13.8 mph 17.3 mph 0.02 in Rain , Thunderstorm Light Thunderstorms and Rain
5:35 PM 48.2 °F - 46.4 °F 93% 29.54 in 2.5 mi ENE 13.8 mph - 0.09 in Rain , Thunderstorm Light Thunderstorms and Rain
5:55 PM 48.2 °F - 45.9 °F 92% 29.54 in 7.0 mi ENE 11.5 mph - 0.09 in   Overcast
6:15 PM 48.2 °F - 45.9 °F 92% 29.54 in 7.0 mi NE 12.7 mph - N/A   Overcast
6:35 PM 48.2 °F - 45.9 °F 92% 29.54 in 7.0 mi NE 11.5 mph - N/A   Overcast
6:55 PM 48.2 °F - 45.9 °F 92% 29.56 in 7.0 mi NE 11.5 mph - N/A   Overcast
7:15 PM 48.2 °F - 46.0 °F 92% 29.58 in 5.0 mi East 10.4 mph - 0.02 in Rain , Thunderstorm Light Thunderstorms and Rain
7:35 PM 48.2 °F - 46.4 °F 93% 29.53 in 5.0 mi ENE 16.1 mph - 0.05 in Rain Rain
7:55 PM 48.2 °F - 46.4 °F 93% 29.54 in 5.0 mi East 16.1 mph 19.6 mph 0.05 in Rain Light Rain
8:15 PM 48.2 °F - 46.4 °F 93% 29.54 in 5.0 mi East 16.1 mph 21.9 mph N/A   Overcast
8:35 PM 48.2 °F - 46.4 °F 93% 29.53 in 5.0 mi ENE 13.8 mph 21.9 mph N/A   Overcast
8:55 PM 48.2 °F - 46.4 °F 93% 29.53 in 5.0 mi ENE 13.8 mph 18.4 mph N/A   Overcast
9:15 PM 45.7 °F 39.1 °F 43.7 °F 93% 29.53 in 5.0 mi ENE 15.0 mph 20.7 mph N/A   Overcast
9:35 PM 46.4 °F 41.1 °F 44.6 °F 93% 29.55 in 5.0 mi ENE 11.5 mph - N/A   Overcast
9:55 PM 45.3 °F 39.0 °F 43.5 °F 93% 29.56 in 5.0 mi ENE 13.8 mph - N/A   Overcast
10:15 PM 44.6 °F 38.1 °F 42.8 °F 93% 29.56 in 5.0 mi ENE 13.8 mph 20.7 mph N/A   Overcast
10:35 PM 44.6 °F 38.8 °F 42.4 °F 92% 29.56 in 5.0 mi ENE 11.5 mph 16.1 mph N/A   Overcast
10:55 PM 43.9 °F 37.5 °F 41.9 °F 93% 29.55 in 5.0 mi ENE 12.7 mph - N/A   Overcast
11:15 PM 43.9 °F 37.9 °F 41.9 °F 93% 29.56 in 7.0 mi ENE 11.5 mph - N/A   Overcast
11:35 PM 43.7 °F 37.7 °F 41.9 °F 93% 29.55 in 7.0 mi ENE 11.5 mph - N/A   Overcast
11:55 PM 43.7 °F 38.1 °F 41.9 °F 93% 29.55 in 5.0 mi ENE 10.4 mph - N/A   Overcast